パンスターズ彗星

C/2012 S3 ( PanSTARRS )

English version
Home page
Updated on May 7, 2015

---------------------------------------------------------------------

・ プロフィール

発見日 2012年9月27日
発見光度 20.2等
発見者 Pan-STARRS 1 telescope (Haleakala)

・ 写真集

・ 軌道要素

Epoch 2013 Aug. 16.0 TT = JDT 2456520.5
T 2013 Aug. 31.12435 TT                                 MPC
q   2.3080934            (2000.0)            P               Q
z  -0.0003352      Peri.  183.74856     +0.49672547     -0.36616213
                   Node   121.30554     -0.77042053     +0.23145829
e   1.0007737      Incl.  112.93152     -0.39964486     -0.90130591
From 714 observations 2012 Sept. 27-2014 Apr. 4, mean residual 0".6.
     Nongravitational parameters A1 = +6.28, A2 = +5.8936.

・ 星図

・ 光度変化

        m1 = 12.5 + 5 logΔ + 6.0 log r

---------------------------------------------------------------------

軌道要素はM.P.E.C. 2014-H26に掲載されたものです。
星図はステラナビゲータ Ver.8 (アストロアーツ) で作成したものです。
光度グラフはComet for Windowsで作成したものです。

---------------------------------------------------------------------

Copyright(C) Seiichi Yoshida (comet@aerith.net). All rights reserved.